BAW9UP EGNT-EGSS

Flight info

Callsign BAW9UP
Flight time 0h 51m
Altitude 28000
Route GIRLI P18 GASKO P16 RIBEL UP16 CROFT L612 LISTO
Aircraft B77W/H-VGDW/C

Departure

Time 2026-05-05 11:49
Airport Newcastle International Airport (EGNT)

Arrival

Time 2026-05-05 12:40
Airport London Stansted Airport (EGSS)
Time Latitude Longitude Altitude Speed Heading
2026-05-05 11:30 55.03700 -1.70535 269 ft 0 kts 263°
2026-05-05 11:41 55.03700 -1.70534 269 ft 0 kts 263°
2026-05-05 11:41 55.03700 -1.70530 269 ft 0 kts 263°
2026-05-05 11:41 55.03700 -1.70526 269 ft 1 kts 262°
2026-05-05 11:41 55.03701 -1.70518 270 ft 1 kts 262°
2026-05-05 11:42 55.03702 -1.70507 272 ft 2 kts 262°
2026-05-05 11:42 55.03704 -1.70484 271 ft 2 kts 261°
2026-05-05 11:42 55.03706 -1.70459 274 ft 2 kts 249°
2026-05-05 11:42 55.03713 -1.70439 273 ft 2 kts 206°
2026-05-05 11:43 55.03717 -1.70435 273 ft 0 kts 186°
2026-05-05 11:44 55.03714 -1.70435 273 ft 2 kts 186°
2026-05-05 11:45 55.03678 -1.70439 271 ft 8 kts 184°
2026-05-05 11:45 55.03628 -1.70446 267 ft 5 kts 191°
2026-05-05 11:45 55.03601 -1.70490 268 ft 6 kts 244°
2026-05-05 11:45 55.03595 -1.70560 269 ft 6 kts 267°
2026-05-05 11:46 55.03586 -1.70630 269 ft 6 kts 231°
2026-05-05 11:46 55.03540 -1.70648 269 ft 8 kts 180°
2026-05-05 11:46 55.03491 -1.70647 268 ft 0 kts 179°
2026-05-05 11:47 55.03490 -1.70647 268 ft 1 kts 179°
2026-05-05 11:47 55.03446 -1.70646 269 ft 13 kts 180°
2026-05-05 11:48 55.03378 -1.70548 272 ft 8 kts 66°
2026-05-05 11:48 55.03385 -1.70519 271 ft 12 kts 66°
2026-05-05 11:48 55.03539 -1.69948 270 ft 94 kts 64°
2026-05-05 11:49 55.03929 -1.68506 261 ft 164 kts 64°
2026-05-05 11:49 55.04426 -1.66531 682 ft 188 kts 64°
2026-05-05 11:49 55.04957 -1.64543 1761 ft 178 kts 61°
2026-05-05 11:49 55.05516 -1.62584 2478 ft 190 kts 59°
2026-05-05 11:50 55.06077 -1.60378 2898 ft 211 kts 75°
2026-05-05 11:50 55.06077 -1.58593 3054 ft 237 kts 103°
2026-05-05 11:50 55.05190 -1.55988 3549 ft 265 kts 133°
2026-05-05 11:50 55.03167 -1.53475 4726 ft 276 kts 159°
2026-05-05 11:51 55.01279 -1.52920 5585 ft 277 kts 180°
2026-05-05 11:51 54.99362 -1.52961 6673 ft 274 kts 182°
2026-05-05 11:51 54.97466 -1.53270 7479 ft 274 kts 199°
2026-05-05 11:51 54.95780 -1.54806 7985 ft 278 kts 214°
2026-05-05 11:52 54.94680 -1.56013 8009 ft 285 kts 215°
2026-05-05 11:52 54.92409 -1.58416 9145 ft 284 kts 213°
2026-05-05 11:52 54.91290 -1.59587 9860 ft 284 kts 215°
2026-05-05 11:52 54.89591 -1.61357 10775 ft 286 kts 213°
2026-05-05 11:53 54.87871 -1.63140 11678 ft 289 kts 213°
2026-05-05 11:53 54.86134 -1.64934 12689 ft 292 kts 213°
2026-05-05 11:53 54.84373 -1.66745 13747 ft 296 kts 213°
2026-05-05 11:53 54.82005 -1.69174 14990 ft 301 kts 213°
2026-05-05 11:54 54.80190 -1.71031 15976 ft 304 kts 213°
2026-05-05 11:54 54.78954 -1.72295 16638 ft 307 kts 213°
2026-05-05 11:54 54.77131 -1.74157 17636 ft 310 kts 213°
2026-05-05 11:54 54.75261 -1.76065 18578 ft 314 kts 214°
2026-05-05 11:55 54.73372 -1.77989 19436 ft 317 kts 213°
2026-05-05 11:55 54.71451 -1.79901 20347 ft 321 kts 209°
2026-05-05 11:55 54.69308 -1.81084 21204 ft 328 kts 194°
2026-05-05 11:55 54.67042 -1.81739 22063 ft 333 kts 193°
2026-05-05 11:56 54.64743 -1.82401 22960 ft 336 kts 193°
2026-05-05 11:56 54.62428 -1.83094 23823 ft 339 kts 194°
2026-05-05 11:56 54.60094 -1.83819 24533 ft 343 kts 194°
2026-05-05 11:56 54.57729 -1.84568 25254 ft 348 kts 194°
2026-05-05 11:57 54.55336 -1.85330 25964 ft 352 kts 194°
2026-05-05 11:57 54.52911 -1.86097 26682 ft 356 kts 194°
2026-05-05 11:57 54.50488 -1.86856 27377 ft 361 kts 194°
2026-05-05 11:57 54.48002 -1.87634 27961 ft 366 kts 193°
2026-05-05 11:58 54.42964 -1.89206 28035 ft 369 kts 193°
2026-05-05 11:58 54.37912 -1.90754 28029 ft 368 kts 192°
2026-05-05 11:59 54.32852 -1.91988 28028 ft 367 kts 191°
2026-05-05 11:59 54.27802 -1.93157 28023 ft 366 kts 191°
2026-05-05 12:00 54.22801 -1.94340 28016 ft 365 kts 190°
2026-05-05 12:00 54.20265 -1.94949 28034 ft 376 kts 190°
2026-05-05 12:00 54.17597 -1.95595 28066 ft 399 kts 190°
2026-05-05 12:01 54.14775 -1.96278 28054 ft 420 kts 190°
2026-05-05 12:01 54.11808 -1.96996 28050 ft 440 kts 190°
2026-05-05 12:01 54.08712 -1.97741 28051 ft 459 kts 189°
2026-05-05 12:01 54.05512 -1.98508 28048 ft 467 kts 189°
2026-05-05 12:02 53.99104 -2.00033 28035 ft 468 kts 189°
2026-05-05 12:02 53.92661 -2.01566 28026 ft 468 kts 189°
2026-05-05 12:03 53.86219 -2.03097 28038 ft 467 kts 189°
2026-05-05 12:03 53.79772 -2.04625 28032 ft 468 kts 189°
2026-05-05 12:04 53.73321 -2.06150 28028 ft 468 kts 189°
2026-05-05 12:04 53.66872 -2.07672 28043 ft 468 kts 189°
2026-05-05 12:05 53.60453 -2.09181 28030 ft 469 kts 189°
2026-05-05 12:05 53.54001 -2.10693 28038 ft 468 kts 189°
2026-05-05 12:06 53.47547 -2.12201 28037 ft 468 kts 189°
2026-05-05 12:06 53.41102 -2.13702 28043 ft 467 kts 189°
2026-05-05 12:07 53.34660 -2.15199 28050 ft 468 kts 189°
2026-05-05 12:07 53.28211 -2.16693 28043 ft 468 kts 189°
2026-05-05 12:08 53.21811 -2.18171 28051 ft 468 kts 188°
2026-05-05 12:08 53.15353 -2.18899 28054 ft 466 kts 173°
2026-05-05 12:09 53.09189 -2.15758 28041 ft 463 kts 155°
2026-05-05 12:09 53.03561 -2.10562 28029 ft 462 kts 150°
2026-05-05 12:10 52.98038 -2.05087 28036 ft 462 kts 149°
2026-05-05 12:10 52.92549 -1.99657 28021 ft 463 kts 150°
2026-05-05 12:11 52.87020 -1.94175 28020 ft 463 kts 150°
2026-05-05 12:11 52.81492 -1.88682 28018 ft 463 kts 150°
2026-05-05 12:12 52.75956 -1.83220 28018 ft 464 kts 150°
2026-05-05 12:12 52.70435 -1.77751 28009 ft 463 kts 150°
2026-05-05 12:13 52.64930 -1.72276 28007 ft 462 kts 150°
2026-05-05 12:13 52.59470 -1.66857 28015 ft 461 kts 150°
2026-05-05 12:14 52.53989 -1.61405 28009 ft 461 kts 150°
2026-05-05 12:14 52.48508 -1.55956 28029 ft 460 kts 150°
2026-05-05 12:15 52.43052 -1.50529 27758 ft 456 kts 150°
2026-05-05 12:15 52.40353 -1.47842 27114 ft 451 kts 150°
2026-05-05 12:15 52.37682 -1.45168 26384 ft 448 kts 150°
2026-05-05 12:16 52.35038 -1.42513 25700 ft 444 kts 150°
2026-05-05 12:16 52.32419 -1.39881 25034 ft 441 kts 150°
2026-05-05 12:16 52.29810 -1.37261 24407 ft 438 kts 150°
2026-05-05 12:16 52.27225 -1.34667 23793 ft 435 kts 150°
2026-05-05 12:17 52.24827 -1.31861 23031 ft 431 kts 141°
2026-05-05 12:17 52.22576 -1.28539 22255 ft 430 kts 140°
2026-05-05 12:17 52.20356 -1.25479 21553 ft 417 kts 143°
2026-05-05 12:17 52.18028 -1.22731 20486 ft 410 kts 148°
2026-05-05 12:18 52.15619 -1.20258 19339 ft 408 kts 150°
2026-05-05 12:18 52.13177 -1.17942 18296 ft 405 kts 152°
2026-05-05 12:18 52.10738 -1.15691 17179 ft 401 kts 152°
2026-05-05 12:18 52.08323 -1.13389 16326 ft 403 kts 151°
2026-05-05 12:19 52.05941 -1.11077 15940 ft 395 kts 150°
2026-05-05 12:19 52.03600 -1.08796 15523 ft 390 kts 150°
2026-05-05 12:19 52.01270 -1.06565 15139 ft 388 kts 150°
2026-05-05 12:19 51.98940 -1.04363 14983 ft 387 kts 150°
2026-05-05 12:20 51.96602 -1.02165 14989 ft 389 kts 150°
2026-05-05 12:20 51.94478 -0.99460 14976 ft 395 kts 131°
2026-05-05 12:20 51.93032 -0.95745 14991 ft 396 kts 113°
2026-05-05 12:20 51.92272 -0.91504 14943 ft 391 kts 97°
2026-05-05 12:21 51.92334 -0.87151 14486 ft 384 kts 83°
2026-05-05 12:21 51.92681 -0.82893 13983 ft 381 kts 82°
2026-05-05 12:21 51.93035 -0.78652 13367 ft 380 kts 82°
2026-05-05 12:21 51.93379 -0.74429 12935 ft 374 kts 82°
2026-05-05 12:22 51.93704 -0.70287 12693 ft 369 kts 82°
2026-05-05 12:22 51.94017 -0.66146 12453 ft 372 kts 83°
2026-05-05 12:22 51.94326 -0.61960 12277 ft 375 kts 82°
2026-05-05 12:22 51.94633 -0.57770 12173 ft 375 kts 83°
2026-05-05 12:23 51.94938 -0.53558 11983 ft 377 kts 83°
2026-05-05 12:23 51.95238 -0.49326 11774 ft 378 kts 83°
2026-05-05 12:23 51.95530 -0.45168 11559 ft 374 kts 83°
2026-05-05 12:23 51.95818 -0.40999 11345 ft 370 kts 83°
2026-05-05 12:24 51.96101 -0.36883 11116 ft 364 kts 83°
2026-05-05 12:24 51.96376 -0.32869 10919 ft 353 kts 83°
2026-05-05 12:24 51.96640 -0.28974 10717 ft 343 kts 83°
2026-05-05 12:24 51.96897 -0.25187 10503 ft 333 kts 83°
2026-05-05 12:25 51.97146 -0.21500 10319 ft 325 kts 83°
2026-05-05 12:25 51.97387 -0.17903 10135 ft 316 kts 83°
2026-05-05 12:25 51.97621 -0.14407 9954 ft 308 kts 83°
2026-05-05 12:25 51.97848 -0.11013 9905 ft 296 kts 82°
2026-05-05 12:26 51.98063 -0.07768 9645 ft 291 kts 83°
2026-05-05 12:26 51.98278 -0.04501 9450 ft 284 kts 83°
2026-05-05 12:26 51.98482 -0.01391 9279 ft 277 kts 83°
2026-05-05 12:26 51.98722 0.01656 9092 ft 265 kts 74°
2026-05-05 12:27 51.99554 0.04182 9000 ft 251 kts 44°
2026-05-05 12:27 52.00947 0.05807 8984 ft 244 kts 32°
2026-05-05 12:27 52.02133 0.07759 8971 ft 247 kts 62°
2026-05-05 12:27 52.02560 0.10470 8942 ft 254 kts 87°
2026-05-05 12:28 52.02479 0.13387 8614 ft 257 kts 95°
2026-05-05 12:28 52.02297 0.16203 8594 ft 247 kts 95°
2026-05-05 12:28 52.02098 0.18984 8527 ft 250 kts 95°
2026-05-05 12:28 52.01682 0.21805 8533 ft 271 kts 116°
2026-05-05 12:29 52.00482 0.24240 8423 ft 285 kts 141°
2026-05-05 12:29 51.98711 0.25662 7874 ft 287 kts 167°
2026-05-05 12:29 51.96736 0.25688 7262 ft 285 kts 194°
2026-05-05 12:29 51.95042 0.24308 6938 ft 271 kts 221°
2026-05-05 12:30 51.93764 0.22191 6694 ft 257 kts 229°
2026-05-05 12:30 51.92612 0.19988 6445 ft 254 kts 230°
2026-05-05 12:30 51.91525 0.17783 6291 ft 247 kts 234°
2026-05-05 12:30 51.90539 0.15516 5973 ft 247 kts 235°
2026-05-05 12:31 51.89570 0.13223 5625 ft 248 kts 236°
2026-05-05 12:31 51.88594 0.10888 5220 ft 251 kts 236°
2026-05-05 12:31 51.87631 0.08561 4993 ft 246 kts 236°
2026-05-05 12:31 51.86681 0.06256 4637 ft 248 kts 236°
2026-05-05 12:32 51.85731 0.03948 4395 ft 244 kts 236°
2026-05-05 12:32 51.84785 0.01662 4060 ft 244 kts 236°
2026-05-05 12:32 51.83732 -0.00376 4048 ft 234 kts 214°
2026-05-05 12:32 51.82268 -0.01464 4054 ft 233 kts 196°
2026-05-05 12:33 51.80718 -0.02240 3848 ft 234 kts 196°
2026-05-05 12:33 51.79175 -0.03010 3542 ft 228 kts 196°
2026-05-05 12:33 51.77683 -0.03728 3068 ft 227 kts 196°
2026-05-05 12:33 51.76174 -0.04446 2663 ft 222 kts 195°
2026-05-05 12:34 51.74649 -0.04606 2228 ft 220 kts 162°
2026-05-05 12:34 51.73389 -0.03324 2103 ft 215 kts 127°
2026-05-05 12:34 51.72889 -0.01243 2043 ft 191 kts 86°
2026-05-05 12:34 51.73303 0.00601 1998 ft 167 kts 47°
2026-05-05 12:35 51.74120 0.01875 2030 ft 170 kts 44°
2026-05-05 12:35 51.74983 0.03215 2023 ft 169 kts 44°
2026-05-05 12:35 51.75795 0.04443 2002 ft 151 kts 43°
2026-05-05 12:35 51.76535 0.05554 2018 ft 140 kts 42°
2026-05-05 12:36 51.77240 0.06605 2013 ft 134 kts 43°
2026-05-05 12:36 51.77913 0.07610 2031 ft 132 kts 42°
2026-05-05 12:36 51.78593 0.08628 2024 ft 135 kts 43°
2026-05-05 12:36 51.79272 0.09646 2035 ft 132 kts 42°
2026-05-05 12:37 51.79950 0.10657 2006 ft 132 kts 43°
2026-05-05 12:37 51.80620 0.11662 2029 ft 134 kts 42°
2026-05-05 12:37 51.81296 0.12668 2014 ft 132 kts 42°
2026-05-05 12:37 51.81989 0.13710 1970 ft 140 kts 42°
2026-05-05 12:38 51.82699 0.14776 1767 ft 136 kts 42°
2026-05-05 12:38 51.83383 0.15798 1557 ft 131 kts 43°
2026-05-05 12:38 51.84057 0.16810 1409 ft 135 kts 42°
2026-05-05 12:38 51.84747 0.17842 1220 ft 135 kts 43°
2026-05-05 12:39 51.85440 0.18882 1022 ft 135 kts 43°
2026-05-05 12:39 51.86116 0.19898 834 ft 133 kts 43°
2026-05-05 12:39 51.86791 0.20910 667 ft 134 kts 44°
2026-05-05 12:39 51.87472 0.21933 508 ft 134 kts 44°
2026-05-05 12:40 51.88145 0.22960 336 ft 121 kts 42°
2026-05-05 12:40 51.88554 0.23566 351 ft 56 kts 43°
2026-05-05 12:40 51.88618 0.23661 351 ft 0 kts 43°
2026-05-05 12:40 51.88733 0.23832 349 ft 9 kts 43°
2026-05-05 12:41 51.88826 0.24001 352 ft 36 kts 57°
2026-05-05 12:41 51.88903 0.24339 356 ft 23 kts 74°
2026-05-05 12:41 51.88919 0.24457 352 ft 0 kts 92°